Location: Conflandey
(47.7287°N, 6.0456°E)
Time: 22:09:59
(UTC+00:00)

NOSS 3-1 (A) - Pass Details

Date: 24 October 2021
Orbit: 721 x 1491 km, 63.4° (Epoch: 22 November)

Event Time Altitude Azimuth Distance (km) Brightness Sun altitude
Rises 19:38:32 0° 246° (WSW) 3,262 6.9 -31.9°
Reaches altitude 10° 19:40:56 10° 254° (WSW) 2,405 6.2 -32.3°
Maximum altitude 19:46:10 42° 325° (NW) 1,281 4.3 -33.1°
Enters shadow 19:47:26 37° 355° (N) 1,412 4.4 -33.3°
